KA1GJU-3 Weather Reports


time (UTC)temp
C
wind
direction
speed
KPH
gust
KPH
rain 1hr
cm
rain 24hr
cm
rain mn
cm
humidity
%
barometer
mb
20260507085414 8 284 1.6 6.4 0.00 0.00 0.00 100
20260507084414 8 306 4.8 6.4 0.00 0.00 0.00 100
20260507083414 8 281 4.8 4.8 0.00 0.00 0.00 100
20260507082414 8 265 3.2 8.0 0.00 0.00 0.00 100
20260507081414 8 292 4.8 12.9 0.00 0.00 0.00 100
20260507080414 8 278 3.2 11.3 0.00 0.00 0.00 100
20260507075414 9 279 4.8 14.5 0.00 0.00 0.00 100
20260507074414 9 236 6.4 12.9 0.00 0.00 0.00 100
20260507073414 9 265 6.4 12.9 0.00 0.00 0.00 100
20260507072414 8 281 1.6 9.7 0.00 0.00 0.00 100
20260507071414 9 313 4.8 11.3 0.00 0.00 0.00 100
20260507070414 9 310 6.4 12.9 0.00 0.00 0.00 100
20260507065414 9 295 9.7 14.5 0.00 0.00 0.00 100
20260507064414 9 289 6.4 12.9 0.00 0.00 0.00 100
20260507063414 10 319 6.4 8.0 0.00 0.00 0.00 100
20260507062414 10 278 3.2 9.7 0.00 0.00 0.00 100
20260507061414 10 285 4.8 9.7 0.00 0.00 0.00 100
20260507060414 10 279 3.2 8.0 0.00 0.00 0.00 100
20260507055414 10 323 3.2 6.4 0.00 0.00 0.00 100
20260507054414 10 265 4.8 8.0 0.00 0.00 0.00 100
20260507053414 10 303 3.2 11.3 0.00 0.00 0.00 100
20260507052414 10 270 6.4 9.7 0.00 0.00 0.00 100
20260507051414 10 275 6.4 9.7 0.00 0.00 0.00 100
20260507050415 11 307 1.6 8.0 0.00 0.00 0.00 100
20260507045414 11 279 8.0 8.0 0.00 0.00 0.00 100
20260507044415 11 268 4.8 14.5 0.00 0.00 0.00 100
20260507043415 12 307 0.0 11.3 0.00 0.00 0.00 100
20260507042414 12 244 9.7 9.7 0.00 0.00 0.00 100
20260507041414 12 295 6.4 9.7 0.00 0.00 0.00 100
20260507040415 12 282 6.4 14.5 0.00 0.00 0.00 100
20260507035414 12 296 3.2 14.5 0.00 0.00 0.00 100
20260507034414 13 270 4.8 12.9 0.00 0.00 0.00 100
20260507033415 12 288 3.2 17.7 0.00 0.00 0.00 100
20260507032414 14 275 6.4 25.7 0.00 0.00 0.00 100
20260507031415 14 295 6.4 14.5 0.00 0.00 0.00 100
20260507030414 14 271 11.3 12.9 0.00 0.00 0.00 100
20260507025414 14 261 6.4 16.1 0.00 0.00 0.00 100
20260507024414 14 244 6.4 16.1 0.00 0.00 0.00 100
20260507023415 15 250 6.4 14.5 0.00 0.00 0.00 100
20260507022415 14 264 4.8 17.7 0.00 0.00 0.00 100
20260507021414 14 261 12.9 12.9 0.00 0.00 0.00 100
20260507020414 14 248 4.8 11.3 0.00 0.00 0.00 100
20260507015414 15 239 3.2 9.7 0.00 0.00 0.00 100
20260507014414 14 262 9.7 19.3 0.00 0.00 0.00 100
20260507013414 15 237 6.4 14.5 0.00 0.00 0.00 100
20260507012414 14 223 4.8 14.5 0.00 0.00 0.00 100
20260507011415 14 230 4.8 14.5 0.00 0.00 0.00 100
20260507010414 15 257 4.8 19.3 0.00 0.00 0.00 100
20260507005415 14 239 3.2 9.7 0.00 0.00 0.00 100
20260507004414 14 265 4.8 16.1 0.00 0.00 0.00 100
20260507003414 14 171 8.0 20.9 0.00 0.00 0.00 100
20260507002414 14 230 4.8 14.5 0.00 0.00 0.00 100
20260507001414 15 250 6.4 12.9 0.00 0.00 0.00 100
20260507000415 15 255 8.0 12.9 0.00 0.00 0.00 100
20260506235415 14 230 6.4 20.9 0.00 0.00 0.00 100
20260506234416 15 230 9.7 17.7 0.00 0.00 0.00 100
20260506233415 14 251 9.7 16.1 0.00 0.00 0.00 100
20260506232415 15 142 4.8 9.7 0.00 0.00 0.00 100
20260506231415 15 246 3.2 17.7 0.00 0.00 0.00 100
20260506230415 15 260 6.4 20.9 0.00 0.00 0.00 100
20260506225415 15 233 12.9 14.5 0.00 0.00 0.00 100
20260506224415 15 237 4.8 16.1 0.00 0.00 0.00 100
20260506223415 15 240 4.8 19.3 0.00 0.00 0.00 100
20260506222415 15 219 6.4 19.3 0.00 0.00 0.00 100
20260506221414 15 279 6.4 19.3 0.00 0.00 0.00 100
20260506220414 15 208 6.4 29.0 0.00 0.00 0.00 100
20260506215414 15 288 3.2 16.1 0.00 0.00 0.00 100
20260506214414 15 198 8.0 19.3 0.00 0.00 0.00 100
20260506213414 15 243 6.4 19.3 0.00 0.00 0.00 100
20260506212414 15 202 9.7 17.7 0.00 0.00 0.00 100
20260506211414 15 208 6.4 22.5 0.00 0.00 0.00 100
20260506210414 16 244 4.8 14.5 0.00 0.00 0.00 100
20260506205414 16 237 3.2 12.9 0.00 0.00 0.00 100
20260506204415 16 237 4.8 12.9 0.00 0.00 0.00 100
20260506203414 16 222 9.7 19.3 0.00 0.00 0.00 100
20260506202414 16 205 6.4 11.3 0.00 0.00 0.00 100
20260506201414 16 220 6.4 17.7 0.00 0.00 0.00 100
20260506200414 17 298 6.4 16.1 0.00 0.00 0.00 100
20260506195414 17 229 6.4 12.9 0.00 0.00 0.00 100
20260506194414 17 246 3.2 9.7 0.00 0.00 0.00 100
20260506193414 17 202 6.4 19.3 0.00 0.00 0.00 100
20260506192414 18 254 12.9 16.1 0.00 0.00 0.00 100
20260506191414 19 253 6.4 12.9 0.00 0.00 0.00 100
20260506190414 20 248 4.8 11.3 0.00 0.00 0.00 100
20260506185414 20 267 6.4 12.9 0.00 0.00 0.00 100
20260506184414 20 234 9.7 14.5 0.00 0.00 0.00 100
20260506183414 20 187 4.8 14.5 0.00 0.00 0.00 100
20260506182414 21 201 11.3 17.7 0.00 0.00 0.00 100
20260506181414 21 293 8.0 25.7 0.00 0.00 0.00 100
20260506180414 22 261 6.4 38.6 0.00 0.00 0.00 100
20260506175414 22 229 11.3 19.3 0.00 0.00 0.00 100
20260506174414 22 210 14.5 17.7 0.00 0.00 0.00 100
20260506173414 23 226 11.3 25.7 0.00 0.00 0.00 100
20260506172414 23 220 14.5 20.9 0.00 0.00 0.00 100
20260506171414 23 168 17.7 32.2 0.00 0.00 0.00 100
20260506170414 22 298 14.5 17.7 0.00 0.00 0.00 100
20260506165414 22 291 11.3 17.7 0.00 0.00 0.00 100
20260506164414 22 234 8.0 43.5 0.00 0.00 0.00 100
20260506163414 21 175 8.0 20.9 0.00 0.00 0.00 100
20260506162415 21 195 12.9 20.9 0.00 0.00 0.00 100
20260506161415 22 243 16.1 16.1 0.00 0.00 0.00 100
20260506160415 22 205 11.3 17.7 0.00 0.00 0.00 100
20260506155415 21 184 6.4 17.7 0.00 0.00 0.00 100
20260506154415 21 222 6.4 25.7 0.00 0.00 0.00 100
20260506153415 21 241 4.8 16.1 0.00 0.00 0.00 100
20260506152415 21 292 6.4 20.9 0.00 0.00 0.00 100
20260506151415 21 199 6.4 20.9 0.00 0.00 0.00 100
20260506150415 22 157 12.9 16.1 0.00 0.00 0.00 100
20260506145415 21 206 11.3 17.7 0.00 0.00 0.00 100
20260506144415 21 167 12.9 29.0 0.00 0.00 0.00 100
20260506143415 21 232 8.0 19.3 0.00 0.00 0.00 100
20260506142415 21 243 6.4 16.1 0.00 0.00 0.00 100
20260506141415 21 210 6.4 17.7 0.00 0.00 0.00 100
20260506140415 21 262 4.8 19.3 0.00 0.00 0.00 100
20260506135415 20 288 6.4 16.1 0.00 0.00 0.00 100
20260506134415 19 248 8.0 12.9 0.00 0.00 0.00 100
20260506133415 18 240 4.8 27.4 0.00 0.00 0.00 100
20260506132415 19 234 6.4 24.1 0.00 0.00 0.00 100
20260506131415 18 247 4.8 22.5 0.00 0.00 0.00 100
20260506130415 18 257 6.4 19.3 0.00 0.00 0.00 100
20260506125415 18 229 6.4 22.5 0.00 0.00 0.00 100
20260506124415 18 253 9.7 19.3 0.00 0.00 0.00 100
20260506123415 18 203 12.9 17.7 0.00 0.00 0.00 100
20260506122415 20 247 16.1 17.7 0.00 0.00 0.00 100
20260506121415 17 241 6.4 14.5 0.00 0.00 0.00 100
20260506120415 17 241 11.3 14.5 0.00 0.00 0.00 100
20260506115415 17 234 6.4 20.9 0.00 0.00 0.00 100
20260506114415 17 257 6.4 12.9 0.00 0.00 0.00 100
20260506113415 17 202 4.8 14.5 0.00 0.00 0.00 100
20260506112415 17 253 4.8 16.1 0.00 0.00 0.00 100
20260506111415 17 247 8.0 16.1 0.00 0.00 0.00 100
20260506110415 16 170 8.0 14.5 0.00 0.00 0.00 100
20260506105415 16 241 9.7 14.5 0.00 0.00 0.00 100
20260506104415 16 225 4.8 16.1 0.00 0.00 0.00 100
20260506103415 16 253 9.7 19.3 0.00 0.00 0.00 100
20260506102415 16 205 6.4 19.3 0.00 0.00 0.00 100
20260506101415 16 239 9.7 19.3 0.00 0.00 0.00 100
20260506100415 15 239 14.5 20.9 0.00 0.00 0.00 100
20260506095415 15 244 4.8 17.7 0.00 0.00 0.00 100
20260506094415 15 205 9.7 22.5 0.00 0.00 0.00 100
20260506093415 15 240 8.0 19.3 0.00 0.00 0.00 100
20260506092415 15 247 9.7 19.3 0.00 0.00 0.00 100
20260506091415 15 230 4.8 16.1 0.00 0.00 0.00 100
20260506090415 16 262 11.3 14.5 0.00 0.00 0.00 100